Regional Weather Roundup
Issued by NWS

Home | Current Version | Previous Version | Graphics & Text | Print | Product List | Glossary On
Versions: 1 2 3 4 5 6 7 8 9 10 11 12 13 14 15 16 17 18 19 20 21 22 23 24 25 26 27 28 29 30 31 32 33 34 35 36 37 38 39 40 41 42 43 44 45 46 47 48 49 50
000
ASUS43 KLOT 271510
RWRIL

ILLINOIS REGIONAL WEATHER ROUNDUP
NATIONAL WEATHER SERVICE CHICAGO/ROMEOVILLE IL
900 AM CST FRI FEB 27 2015

NOTE: "FAIR" INDICATES FEW OR NO CLOUDS BELOW 12,000 FEET WITH NO
SIGNIFICANT WEATHER AND/OR OBSTRUCTIONS TO VISIBILITY.

* THESE STATIONS ARE NOT UNDER NWS QUALITY CONTROL. THEY ALSO MAY NOT
  REPORT WEATHER SUCH AS PRECIPITATION OR FOG.

ILZ001-002-007-009-015-016-024-271600-
NORTHWEST ILLINOIS

CITY           SKY/WX    TMP DP  RH WIND       PRES   REMARKS
MOLINE         SUNNY     -4 -10  75 W6        30.64R WCI -16
STERLING*      SUNNY     -2  -9  71 CALM      30.62R
SAVANNA*       SUNNY     -8 -13  76 CALM      30.63R
$$

ILZ003-004-008-010-011-017-018-271600-
NORTH CENTRAL ILLINOIS

CITY           SKY/WX    TMP DP  RH WIND       PRES   REMARKS
ROCKFORD       SUNNY     -5 -10  79 CALM      30.61R
FREEPORT*      SUNNY     -4 -11  73 CALM      30.60R
ROCHELLE*      SUNNY    -12 -16  81 CALM      30.61R
DE KALB*       SUNNY     -2  -8  72 W5        30.57R WCI -12
PERU*          SUNNY     -1  -8  70 W5        30.62R WCI -11
$$

ILZ005-006-012>014-019>023-271600-
NORTHEAST ILLINOIS

CITY           SKY/WX    TMP DP  RH WIND       PRES   REMARKS
CHICAGO-OHARE  SUNNY      5  -6  60 W7        30.57R WCI  -7
CHICAGO-MIDWAY MOSUNNY    9  -3  58 W5        30.59R WCI   1
AURORA         SUNNY     -3 -11  68 NW9       30.59R WCI -19
LANSING*       SUNNY      4  -1  79 CALM      30.59R
JOLIET*        SUNNY      2  -8  61 W3        30.61R
WAUKEGAN       FAIR       5  -8  55 W8        30.55R WCI  -8
DUPAGE AIRPORT SUNNY      4  -7  60 W7        30.56R WCI  -8
KANKAKEE*      SUNNY     -2  -8  78 W8        30.62R WCI -17
WHEELING       SUNNY      7  -7  52 NW7       30.58R WCI  -5
MORRIS*        SUNNY     -5 -11  75 SW3       30.61R
ROMEOVILLE*    SUNNY      3  -6  64 CALM      30.59R
NORTHERLY ISL    N/A     11  -2  56 SW5         N/A  WCI   3
$$

LMZ740>746-271600-
SOUTHERN LAKE MICHIGAN

STATION/POSITION SKY/WX   TEMP    WIND        PRES    VSBY  WAVE
                          AIR SEA DIR/SP/G                  HT/PER
                          (F)     (DEG/KT/KT) (MB)    (MI)  (FT/S)
WAUKEGAN HARBOR             7     290/  6/ 10   N/A
HARRISON CRIB               8     270/  8/ 11   N/A
BURNHAM HARBOR             11     250/  6/  9   N/A
CALUMET HARBOR             10     240/  5/  8 1034.0R
MICHIGAN CITY               8     200/  9/ 11   N/A
$$

ILZ025>027-034>036-040-047-049-050-058-095>099-271600-
WEST-CENTRAL ILLINOIS

CITY           SKY/WX    TMP DP  RH WIND       PRES   REMARKS
QUINCY         SUNNY     -1  -8  72 NW8       30.67R WCI -15
GALESBURG*     LGT SNOW  -6 -10  83 NW6       30.63R VSB 1   WCI -18
MACOMB*        SUNNY     -5  -9  81 W6        30.68R WCI -17
JACKSONVILLE*  SUNNY      0  -7  71 W8        30.68R WCI -14
PITTSFIELD*    SUNNY      2  -5  70 NW5       30.68R WCI  -7
$$

ILZ028>032-037-038-041>044-048-051>054-059>061-271600-
CENTRAL ILLINOIS

CITY           SKY/WX    TMP DP  RH WIND       PRES   REMARKS
PONTIAC        SUNNY     -3  -8  78 W5        30.63R WCI -13
BLOOMINGTON    SUNNY      4  -5  66 W3        30.61R
DECATUR        MOSUNNY    3  -5  69 W6        30.64R WCI  -8
PEORIA         SUNNY      2  -6  69 CALM      30.65R
LACON*         SUNNY     -1 -10  66 CALM      30.64R
LINCOLN*       SUNNY      3  -5  69 NW6       30.69R WCI  -8
SPRINGFIELD    SUNNY     -4 -10  75 SW8       30.67R WCI -19
TAYLORVILLE    SUNNY      0  -6  78 CALM      30.66R
$$

ILZ033-039-045-046-055>057-062-063-271600-
EAST-CENTRAL ILLINOIS

CITY           SKY/WX    TMP DP  RH WIND       PRES   REMARKS
CHAMPAIGN      SUNNY     -2  -7  79 W5        30.61R WCI -12
DANVILLE*      SUNNY      3  -5  68 NW5       30.58R WCI  -6
RANTOUL*       SUNNY      4  -4  69 NW5       30.61R WCI  -6
MATTOON        SUNNY      1  -6  72 W7        30.63R WCI -12
PARIS*         SUNNY      0  -6  77 W3        30.63R
$$

ILZ079-100>102-271600-
SOUTHWEST ILLINOIS

CITY           SKY/WX    TMP DP  RH WIND       PRES   REMARKS
BELLEVILLE     SUNNY     10  -1  62 VRB5      30.68R WCI   1
CAHOKIA*       SUNNY     10  -1  61 NW7       30.70R WCI  -1
SPARTA*        SUNNY      8   0  67 CALM      30.69R
$$

ILZ064>066-069>071-074>076-080>082-084>086-088>090-092>094-271600-
SOUTH-CENTRAL ILLINOIS

CITY           SKY/WX    TMP DP  RH WIND       PRES   REMARKS
CARBONDALE     SUNNY     11   2  67 NW9       30.68R WCI  -2
CAIRO*         SUNNY     15   6  66 N8        30.66R WCI   4
EFFINGHAM*     SUNNY      4  -7  61 W6        30.67R WCI  -7
MARION         SUNNY     12   3  67 N12       30.68R WCI  -2
MT. VERNON     SUNNY      9   0  66 W5        30.67R WCI   0
CENTRALIA*     SUNNY      7  -2  67 NW6       30.67R WCI  -3
SALEM*         SUNNY      6  -3  65 NW5       30.67R WCI  -2
METROPOLIS*    SUNNY     14   7  74 N7        30.64R WCI   4
$$

ILZ067-068-072-073-078-083-087-091-271600-
SOUTHEAST ILLINOIS

CITY           SKY/WX    TMP DP  RH WIND       PRES   REMARKS
LAWRENCEVILLE  SUNNY     12   4  70 W9        30.65R WCI   0
FLORA*         SUNNY      2  -4  73 NW7       30.67R WCI -10
FAIRFIELD*     SUNNY      7  -1  67 NW5       30.66R WCI  -2
HARRISBURG*    SUNNY     12   4  71 NW6       30.69R WCI   2
ROBINSON*      SUNNY      8   1  70 NW6       30.67R WCI  -2
CARMI*         SUNNY     12   6  77 NW8       30.66R WCI   1
$$

ABBREVIATIONS USED IN REMARKS
   TC - TEMPERATURE IN CELSIUS
  WCI - WIND CHILL INDEX
   HX - HEAT INDEX
  VSB - VISIBILITY
$$




USA.gov is the U.S. government's official web portal to all federal, state and local government web resources and services.